TimeCST,TemperatureF,Dew PointF,Humidity,Sea Level PressureIn,VisibilityMPH,Wind Direction,Wind SpeedMPH,Gust SpeedMPH,PrecipitationIn,Events,Conditions,WindDirDegrees,DateUTC
12:15 AM,23.0,21.2,93,30.24,9.0,Calm,Calm,-,N/A,,Overcast,0,2014-02-04 06:15:00
12:35 AM,23.0,21.2,93,30.25,8.0,Calm,Calm,-,N/A,,Overcast,0,2014-02-04 06:35:00
12:55 AM,23.0,21.2,93,30.25,7.0,Calm,Calm,-,N/A,,Overcast,0,2014-02-04 06:55:00
1:15 AM,24.8,23.0,93,30.23,5.0,Calm,Calm,-,N/A,,Overcast,0,2014-02-04 07:15:00
1:35 AM,24.8,23.0,93,30.23,4.0,ENE,3.5,-,N/A,,Overcast,70,2014-02-04 07:35:00
1:55 AM,24.8,24.8,100,30.22,3.0,East,3.5,-,N/A,,Overcast,80,2014-02-04 07:55:00
2:15 AM,24.8,24.8,100,30.21,4.0,Calm,Calm,-,N/A,,Overcast,0,2014-02-04 08:15:00
2:35 AM,24.8,24.8,100,30.20,4.0,East,4.6,-,N/A,,Overcast,80,2014-02-04 08:35:00
2:55 AM,24.8,24.8,100,30.22,4.0,Calm,Calm,-,N/A,,Overcast,0,2014-02-04 08:55:00
3:15 AM,24.8,24.8,100,30.23,4.0,Calm,Calm,-,N/A,,Overcast,0,2014-02-04 09:15:00
3:35 AM,24.8,24.8,100,30.25,4.0,Calm,Calm,-,N/A,,Overcast,0,2014-02-04 09:35:00
3:55 AM,24.8,24.8,100,30.24,5.0,Calm,Calm,-,N/A,,Overcast,0,2014-02-04 09:55:00
4:15 AM,26.6,24.8,93,30.21,5.0,Calm,Calm,-,N/A,,Overcast,0,2014-02-04 10:15:00
4:35 AM,26.6,24.8,93,30.20,5.0,Calm,Calm,-,N/A,,Overcast,0,2014-02-04 10:35:00
4:55 AM,26.6,24.8,93,30.19,5.0,East,3.5,-,N/A,,Overcast,80,2014-02-04 10:55:00
5:15 AM,26.6,24.8,93,30.20,5.0,Calm,Calm,-,N/A,,Overcast,0,2014-02-04 11:15:00
5:35 AM,26.6,24.8,93,30.19,5.0,East,3.5,-,N/A,,Overcast,80,2014-02-04 11:35:00
5:55 AM,26.6,26.6,100,30.19,5.0,ENE,3.5,-,N/A,,Overcast,70,2014-02-04 11:55:00
6:15 AM,26.6,26.6,100,30.16,4.0,ENE,3.5,-,N/A,,Overcast,70,2014-02-04 12:15:00
6:35 AM,26.6,26.6,100,30.17,4.0,Calm,Calm,-,N/A,,Overcast,0,2014-02-04 12:35:00
6:55 AM,26.6,26.6,100,30.20,4.0,Calm,Calm,-,N/A,,Overcast,0,2014-02-04 12:55:00
7:15 AM,26.6,26.6,100,30.19,4.0,Calm,Calm,-,N/A,,Overcast,0,2014-02-04 13:15:00
7:35 AM,26.6,26.6,100,30.17,4.0,Calm,Calm,-,N/A,,Overcast,0,2014-02-04 13:35:00
7:55 AM,26.6,26.6,100,30.17,2.5,Calm,Calm,-,N/A,,Overcast,0,2014-02-04 13:55:00
8:15 AM,26.6,26.6,100,30.15,3.0,Calm,Calm,-,N/A,,Overcast,0,2014-02-04 14:15:00
8:35 AM,26.6,26.6,100,30.11,2.5,ENE,4.6,-,N/A,,Overcast,60,2014-02-04 14:35:00
8:55 AM,28.4,26.6,93,30.11,2.5,ENE,3.5,-,N/A,,Overcast,70,2014-02-04 14:55:00
9:15 AM,28.4,26.6,93,30.11,2.5,Calm,Calm,-,N/A,,Overcast,0,2014-02-04 15:15:00
9:35 AM,28.4,28.4,100,30.13,3.0,NNE,4.6,-,N/A,,Overcast,30,2014-02-04 15:35:00
9:55 AM,28.4,28.4,100,30.13,2.5,NE,3.5,-,N/A,,Overcast,40,2014-02-04 15:55:00
10:15 AM,28.4,28.4,100,30.13,3.0,Calm,Calm,-,N/A,,Overcast,0,2014-02-04 16:15:00
10:35 AM,28.4,28.4,100,30.16,3.0,Calm,Calm,-,N/A,,Overcast,0,2014-02-04 16:35:00
10:55 AM,28.4,28.4,100,30.19,2.0,Calm,Calm,-,N/A,,Overcast,0,2014-02-04 16:55:00
11:15 AM,28.4,28.4,100,30.11,1.5,NNE,5.8,-,N/A,,Overcast,20,2014-02-04 17:15:00
11:35 AM,28.4,28.4,100,30.09,1.5,NNE,5.8,-,N/A,,Overcast,20,2014-02-04 17:35:00
11:55 AM,28.4,28.4,100,30.09,1.5,NNE,4.6,-,N/A,,Overcast,20,2014-02-04 17:55:00
12:15 PM,28.4,28.4,100,30.03,1.5,NNE,5.8,-,N/A,,Overcast,30,2014-02-04 18:15:00
12:35 PM,28.4,28.4,100,30.00,2.0,ENE,4.6,-,N/A,,Overcast,60,2014-02-04 18:35:00
12:55 PM,28.4,28.4,100,30.00,2.5,Calm,Calm,-,N/A,,Overcast,0,2014-02-04 18:55:00
1:15 PM,28.4,28.4,100,29.92,1.5,ENE,5.8,-,N/A,,Overcast,70,2014-02-04 19:15:00
1:35 PM,28.4,28.4,100,29.92,4.0,Calm,Calm,-,N/A,,Overcast,0,2014-02-04 19:35:00
1:55 PM,30.2,28.4,93,29.93,1.8,NNE,3.5,17.3,N/A,,Overcast,30,2014-02-04 19:55:00
2:15 PM,30.2,28.4,93,29.89,2.0,ENE,4.6,-,N/A,,Overcast,70,2014-02-04 20:15:00
2:35 PM,30.2,28.4,93,29.89,2.0,ENE,3.5,-,N/A,,Overcast,70,2014-02-04 20:35:00
2:55 PM,30.2,28.4,93,29.85,2.5,ENE,3.5,-,N/A,,Overcast,60,2014-02-04 20:55:00
3:15 PM,30.2,28.4,93,29.89,2.0,ENE,3.5,48.3,N/A,,Overcast,70,2014-02-04 21:15:00
3:35 PM,30.2,30.2,100,29.90,1.5,Calm,Calm,-,N/A,,Overcast,0,2014-02-04 21:35:00
3:55 PM,30.2,28.4,93,29.87,2.5,NE,6.9,84.0,N/A,,Overcast,40,2014-02-04 21:55:00
4:15 PM,30.2,28.4,93,29.90,2.5,Calm,Calm,-,N/A,,Overcast,0,2014-02-04 22:15:00
4:35 PM,30.2,28.4,93,29.86,2.5,Calm,Calm,-,N/A,,Overcast,0,2014-02-04 22:35:00
4:55 PM,30.2,28.4,93,29.87,7.0,Calm,Calm,-,N/A,,Overcast,0,2014-02-04 22:55:00
5:15 PM,30.2,28.4,93,29.87,3.0,NNE,3.5,15.0,N/A,,Overcast,20,2014-02-04 23:15:00
5:35 PM,30.2,28.4,93,29.86,4.0,NNE,3.5,-,N/A,,Overcast,20,2014-02-04 23:35:00
6:15 PM,30.2,28.4,93,29.86,5.0,ENE,3.5,-,N/A,,Overcast,60,2014-02-05 00:15:00
6:35 PM,30.2,30.2,100,29.86,4.0,Calm,Calm,-,N/A,,Overcast,0,2014-02-05 00:35:00
6:55 PM,30.2,30.2,100,29.84,4.0,NE,3.5,-,N/A,,Overcast,50,2014-02-05 00:55:00
7:15 PM,30.2,30.2,100,29.84,7.0,Calm,Calm,-,N/A,,Overcast,0,2014-02-05 01:15:00
7:35 PM,30.2,28.4,93,29.80,7.0,Calm,Calm,-,N/A,,Overcast,0,2014-02-05 01:35:00
7:55 PM,30.2,30.2,100,29.84,10.0,Calm,Calm,-,N/A,,Overcast,0,2014-02-05 01:55:00
8:15 PM,30.2,28.4,93,29.82,10.0,Calm,Calm,-,N/A,,Overcast,0,2014-02-05 02:15:00
8:35 PM,28.4,28.4,100,29.84,10.0,Calm,Calm,-,N/A,,Overcast,0,2014-02-05 02:35:00
8:55 PM,28.4,28.4,100,29.84,10.0,Calm,Calm,-,N/A,,Overcast,0,2014-02-05 02:55:00
9:15 PM,30.2,28.4,93,29.85,10.0,Calm,Calm,-,N/A,,Overcast,0,2014-02-05 03:15:00
9:35 PM,28.4,28.4,100,29.87,8.0,Calm,Calm,-,N/A,,Overcast,0,2014-02-05 03:35:00
9:55 PM,28.4,28.4,100,29.86,6.0,Calm,Calm,-,N/A,,Overcast,0,2014-02-05 03:55:00
10:15 PM,28.4,28.4,100,29.86,4.0,Calm,Calm,-,N/A,,Overcast,0,2014-02-05 04:15:00
10:35 PM,28.4,28.4,100,29.86,4.0,Calm,Calm,-,N/A,,Overcast,0,2014-02-05 04:35:00
10:55 PM,28.4,28.4,100,29.86,2.5,Calm,Calm,-,N/A,,Overcast,0,2014-02-05 04:55:00
11:15 PM,28.4,28.4,100,29.87,2.5,Calm,Calm,-,N/A,,Overcast,0,2014-02-05 05:15:00
11:35 PM,28.4,28.4,100,29.87,2.5,WNW,3.5,-,N/A,,Overcast,300,2014-02-05 05:35:00
11:55 PM,28.4,28.4,100,29.87,2.0,Calm,Calm,-,N/A,,Overcast,0,2014-02-05 05:55:00